[[{"header":{"parameterUnit":"m.s-1","parameterCategory":2,"la1":30.2991,"la2":30.254,"lo1":-89.0895,"lo2":-89.0444,"dy":0.0017,"dx":0.0017,"nx":28,"ny":28,"refTime":"2024-10-06T03:00:00:Z","depth":"0","parameterNumber":2,"parameterNumberName":"U-component_of_CURRENTS"},"data":[0,0,0,0,0,0,0,0,0,0,0,0,0,0,0,0,0,0,0,0,0,0,0,0,0,0,0,0,0,0,0,0,0,0,0,0,0,0,0,0,0,0,0,0,0,0,0,0,0,0,0,0,0,0,0,0,0,0,-0.2374,-0.2374,0,-0.2375,-0.2375,-0.2375,-0.2338,-0.2337,-0.2337,-0.2336,-0.2288,-0.2288,-0.2287,0,0,0,0,0,0,0,0,0,0,0,0,0,-0.2329,-0.233,-0.2373,-0.2374,-0.2374,-0.2375,-0.2375,-0.2374,-0.2338,-0.2337,-0.2336,-0.2336,-0.2289,-0.2288,-0.2287,0,0,0,0,0,0,0,0,0,0,0,0,0,-0.2339,-0.233,-0.2373,-0.2358,-0.2357,-0.2375,-0.2375,-0.2374,-0.2338,-0.2337,-0.2336,-0.2335,-0.2289,-0.2288,-0.2287,-0.2304,0,0,-0.2285,-0.2284,0,0,0,0,0,0,0,0,-0.2338,-0.234,-0.236,-0.2359,-0.2358,-0.2357,-0.2342,-0.2349,-0.2339,-0.2343,-0.2336,-0.2335,-0.2309,-0.2307,-0.2307,-0.2302,-0.23,-0.2285,-0.2284,-0.2284,-0.2283,0,0,0,0,0,0,0,-0.2338,-0.234,-0.2371,-0.236,-0.2359,-0.2347,-0.2347,-0.2343,-0.2329,-0.2342,-0.234,-0.2345,-0.2308,-0.2308,-0.2305,-0.2299,-0.2285,-0.2284,-0.2283,-0.2283,-0.2309,-0.2311,0,0,0,0,0,0,-0.2345,-0.2339,-0.2371,-0.2372,-0.2348,-0.2349,-0.2349,-0.2357,-0.233,-0.2327,-0.2346,-0.2343,-0.231,-0.2306,-0.2303,-0.2323,-0.2284,-0.2283,-0.2282,-0.2308,-0.231,-0.2311,0,0,0,0,0,0,-0.2344,-0.2348,-0.2371,-0.2357,-0.236,-0.2352,-0.236,-0.2357,-0.2354,-0.2334,-0.2328,-0.2345,-0.2309,-0.2305,-0.2302,-0.232,-0.2282,-0.2282,-0.2307,-0.2309,-0.231,-0.2361,0,0,0,0,0,0,-0.2342,-0.2347,-0.2352,-0.2358,-0.2361,-0.2388,-0.2361,-0.2358,-0.236,-0.2356,-0.2332,-0.2327,-0.2307,-0.2304,-0.2302,-0.2318,-0.2281,-0.2305,-0.2308,-0.231,-0.2358,-0.2364,-0.237,0,0,0,0,0,-0.2341,-0.2356,-0.2352,-0.2356,-0.2368,-0.239,-0.239,-0.2378,-0.2361,-0.2369,-0.235,-0.2327,-0.2317,-0.2304,-0.2301,-0.2318,-0.2304,-0.2307,-0.231,-0.2355,-0.2363,-0.237,0,0,0,0,0,0,-0.2339,-0.2354,-0.235,-0.2368,-0.238,-0.2384,-0.2389,-0.2383,-0.2376,-0.2366,-0.234,-0.2335,-0.234,-0.2327,-0.2313,-0.2334,-0.2308,-0.2311,-0.2344,-0.2351,-0.2357,-0.2355,-0.228,0,0,0,0,0,-0.2342,-0.2353,-0.237,-0.2382,-0.2391,-0.239,-0.2395,-0.2391,-0.2388,-0.2383,-0.2367,-0.2354,-0.2352,-0.2348,-0.2342,-0.2353,-0.2337,-0.2364,-0.237,-0.2375,-0.2373,-0.2366,-0.2371,-0.232,-0.232,-0.232,0,0,-0.2343,-0.2354,-0.2359,-0.2382,-0.2386,-0.241,-0.239,-0.2404,-0.2418,-0.238,-0.2387,-0.2373,-0.236,-0.2371,-0.2373,-0.236,-0.2385,-0.2379,-0.2383,-0.2378,-0.2369,-0.2374,-0.2378,-0.2322,-0.2322,-0.2321,0,0,-0.2357,-0.2363,-0.238,-0.2397,-0.2415,-0.2421,-0.2428,-0.2438,-0.2435,-0.2447,-0.2424,-0.242,-0.2416,-0.241,-0.2407,-0.2445,-0.2416,-0.2448,-0.2476,-0.247,-0.2473,-0.2476,-0.2473,-0.2475,-0.2451,-0.2452,-0.2452,0,-0.2356,-0.238,-0.2388,-0.2414,-0.2429,-0.243,-0.2455,-0.2464,-0.2469,-0.2471,-0.2454,-0.2451,-0.2435,-0.245,-0.2462,-0.2457,-0.2449,-0.2448,-0.2476,-0.2479,-0.2481,-0.2476,-0.2478,-0.2454,-0.2454,-0.2454,-0.2453,0,-0.2385,-0.2407,-0.2421,-0.2452,-0.2472,-0.2493,-0.2513,-0.2525,-0.252,-0.2522,-0.253,-0.2512,-0.2506,-0.2509,-0.2494,-0.2511,-0.25,-0.2483,-0.2455,-0.2489,-0.2482,-0.2483,-0.2458,-0.2457,-0.2456,-0.2456,0,0,-0.2366,-0.2429,-0.2429,-0.245,-0.2492,-0.2508,-0.2544,-0.257,-0.2584,-0.2584,-0.2597,-0.2593,-0.2574,-0.2569,-0.2553,-0.2549,-0.2559,-0.2526,-0.2524,-0.2517,-0.2549,-0.2522,-0.252,-0.2548,-0.2548,-0.2548,-0.2542,0,-0.2379,-0.243,-0.2461,-0.2504,-0.2531,-0.2557,-0.259,-0.2614,-0.2622,-0.2637,-0.2624,-0.2627,-0.2602,-0.2596,-0.259,-0.2565,-0.2563,-0.2563,-0.2521,-0.252,-0.2487,-0.252,-0.2452,-0.2439,-0.2542,-0.2543,-0.2543,0,-0.2387,-0.242,-0.2468,-0.2528,-0.2542,-0.2571,-0.2611,-0.2641,-0.2672,-0.2679,-0.2682,-0.2671,-0.267,-0.2638,-0.2615,-0.2616,-0.2587,-0.2566,-0.2565,-0.2519,-0.2494,-0.242,-0.2436,-0.2432,-0.2544,-0.2543,-0.2543,0,-0.2348,-0.2419,-0.2453,-0.2474,-0.2548,-0.2569,-0.2601,-0.2643,-0.2667,-0.2697,-0.2711,-0.2709,-0.2699,-0.2673,-0.2631,-0.2622,-0.2602,-0.2582,-0.2533,-0.2531,-0.2453,-0.2443,-0.2452,-0.2564,-0.2564,-0.2564,-0.2564,0,-0.2341,-0.2362,-0.2436,-0.2452,-0.2486,-0.2547,-0.2582,-0.2615,-0.2669,-0.2692,-0.2717,-0.2729,-0.2704,-0.2691,-0.2652,-0.2598,-0.2616,-0.2542,-0.2528,-0.2471,-0.2463,-0.2439,-0.2436,-0.2563,-0.2563,-0.2564,-0.2564,0,-0.2281,-0.2338,-0.2373,-0.2447,-0.2468,-0.2483,-0.2561,-0.2586,-0.2649,-0.2681,-0.2691,-0.2737,-0.2721,-0.27,-0.2658,-0.2615,-0.2533,-0.2549,-0.2488,-0.2467,-0.2408,-0.241,-0.2349,-0.2291,-0.2492,-0.2491,-0.249,0,-0.2254,-0.2267,-0.2338,-0.2351,-0.238,-0.2424,-0.2455,-0.2547,-0.2579,-0.2676,-0.2682,-0.2707,-0.2701,-0.2658,-0.2603,-0.2545,-0.2501,-0.2437,-0.2403,-0.2402,-0.2394,-0.2367,-0.232,-0.2325,-0.2323,-0.2322,-0.2321,0,-0.2179,-0.2203,-0.2227,-0.2261,-0.2292,-0.2334,-0.2389,-0.242,-0.2525,-0.2569,-0.2617,-0.2633,-0.2635,-0.2565,-0.2513,-0.2454,-0.2383,-0.2403,-0.2412,-0.2276,-0.2234,-0.2172,-0.2343,-0.2307,-0.2308,-0.2309,-0.231,-0.231,-0.2098,-0.2092,-0.2124,-0.2142,-0.2181,-0.2209,-0.2199,-0.2288,-0.233,-0.2379,-0.2483,-0.2503,-0.2508,-0.2436,-0.2392,-0.2304,-0.2293,-0.2226,-0.2232,-0.2209,-0.2138,-0.2285,-0.2229,-0.223,-0.223,-0.2231,-0.2232,0,-0.198,-0.1987,-0.2002,-0.2017,-0.2005,-0.2072,-0.2118,-0.2095,-0.21,-0.2229,-0.2264,-0.2349,-0.2294,-0.2305,-0.2251,-0.2166,-0.2092,-0.2101,-0.2052,-0.2013,-0.2153,-0.2132,-0.204,-0.204,-0.204,-0.204,-0.204,-0.204,-0.1917,-0.188,-0.189,-0.1822,-0.1832,-0.1768,-0.1761,-0.1763,-0.1822,-0.1894,-0.2013,-0.2152,-0.2173,-0.2294,-0.2196,-0.21,-0.2025,-0.1954,-0.1959,-0.2083,-0.2096,-0.2108,-0.2089,-0.1989,-0.1989,-0.1762,-0.176,-0.1759]},{"header":{"parameterUnit":"m.s-1","parameterCategory":2,"la1":30.2991,"la2":30.254,"lo1":-89.0895,"lo2":-89.0444,"dy":0.0017,"dx":0.0017,"nx":28,"ny":28,"refTime":"2024-10-06T03:00:00:Z","depth":"0","parameterNumber":3,"parameterNumberName":"V-component_of_CURRENTS"},"data":[0,0,0,0,0,0,0,0,0,0,0,0,0,0,0,0,0,0,0,0,0,0,0,0,0,0,0,0,0,0,0,0,0,0,0,0,0,0,0,0,0,0,0,0,0,0,0,0,0,0,0,0,0,0,0,0,0,0,-0.0383,-0.0382,0,-0.0303,-0.0302,-0.0301,-0.0254,-0.0254,-0.0254,-0.0254,-0.0153,-0.0151,-0.0148,0,0,0,0,0,0,0,0,0,0,0,0,0,-0.045,-0.0449,-0.0383,-0.0382,-0.0381,-0.0303,-0.0302,-0.0301,-0.0254,-0.0254,-0.0254,-0.0254,-0.0154,-0.0151,-0.0148,0,0,0,0,0,0,0,0,0,0,0,0,0,-0.04,-0.0449,-0.0383,-0.0348,-0.0344,-0.0303,-0.0302,-0.03,-0.0254,-0.0254,-0.0254,-0.0253,-0.0155,-0.0151,-0.0147,-0.013,0,0,-0.0136,-0.0134,0,0,0,0,0,0,0,0,-0.0403,-0.0398,-0.0354,-0.0351,-0.0346,-0.0288,-0.0288,-0.0242,-0.0254,-0.0289,-0.0254,-0.0253,-0.0196,-0.0189,-0.0175,-0.0125,-0.0121,-0.0136,-0.0133,-0.0132,-0.0131,0,0,0,0,0,0,0,-0.0407,-0.0401,-0.0351,-0.0353,-0.0348,-0.0321,-0.0314,-0.0279,-0.0245,-0.0286,-0.0282,-0.0273,-0.0194,-0.0179,-0.0172,-0.012,-0.0136,-0.0132,-0.013,-0.0129,-0.0047,-0.0047,0,0,0,0,0,0,-0.0419,-0.0405,-0.0354,-0.0349,-0.0375,-0.032,-0.0312,-0.0307,-0.0246,-0.0236,-0.0273,-0.0271,-0.0186,-0.0177,-0.0169,-0.0141,-0.0132,-0.0128,-0.0126,-0.0047,-0.0047,-0.0047,0,0,0,0,0,0,-0.0421,-0.0416,-0.0357,-0.0375,-0.0365,-0.032,-0.0314,-0.0306,-0.029,-0.0236,-0.0226,-0.0267,-0.0185,-0.0174,-0.0136,-0.0137,-0.0127,-0.0123,-0.0046,-0.0047,-0.0047,-0.0089,0,0,0,0,0,0,-0.0423,-0.0417,-0.042,-0.0376,-0.0365,-0.0338,-0.0314,-0.0304,-0.0285,-0.0282,-0.0227,-0.0218,-0.0184,-0.0142,-0.0133,-0.0132,-0.012,-0.0046,-0.0047,-0.0047,-0.0087,-0.009,-0.0093,0,0,0,0,0,-0.0426,-0.0432,-0.042,-0.0414,-0.0369,-0.0338,-0.033,-0.0296,-0.0286,-0.0281,-0.0242,-0.0219,-0.0136,-0.0139,-0.0128,-0.0126,-0.0046,-0.0047,-0.0047,-0.0086,-0.009,-0.0093,0,0,0,0,0,0,-0.0461,-0.0426,-0.0413,-0.0407,-0.0377,-0.033,-0.0324,-0.0301,-0.0267,-0.0265,-0.0215,-0.0202,-0.0171,-0.0144,-0.0148,-0.0104,-0.009,-0.0088,-0.0123,-0.0126,-0.0129,-0.014,-0.0117,0,0,0,0,0,-0.0471,-0.0468,-0.0427,-0.0424,-0.0412,-0.037,-0.0354,-0.0331,-0.0294,-0.0279,-0.0239,-0.02,-0.0163,-0.0142,-0.0108,-0.008,-0.0049,-0.0074,-0.0076,-0.0079,-0.0081,-0.0032,-0.003,-0.0047,-0.0047,-0.0047,0,0,-0.0484,-0.0465,-0.0463,-0.0431,-0.0407,-0.0394,-0.036,-0.0341,-0.0326,-0.0273,-0.0245,-0.0208,-0.0159,-0.0129,-0.0113,-0.0104,-0.0058,-0.0079,-0.0082,-0.0082,-0.0032,-0.003,-0.0029,-0.0047,-0.0047,-0.0047,0,0,-0.0513,-0.0493,-0.0501,-0.0479,-0.0446,-0.0417,-0.0414,-0.0369,-0.0346,-0.0313,-0.0273,-0.0235,-0.0181,-0.0143,-0.0118,-0.0115,-0.0076,-0.011,-0.0128,-0.0081,-0.0079,-0.0077,-0.0038,-0.0033,-0.0109,-0.0109,-0.0109,0,-0.0531,-0.0534,-0.0498,-0.0497,-0.0483,-0.0431,-0.0433,-0.04,-0.0347,-0.0327,-0.0312,-0.0226,-0.0187,-0.0141,-0.0141,-0.0121,-0.0092,-0.0119,-0.0084,-0.0081,-0.0079,-0.004,-0.0033,-0.0111,-0.0111,-0.0111,-0.011,0,-0.0563,-0.0563,-0.0565,-0.0547,-0.0526,-0.052,-0.0469,-0.0445,-0.0411,-0.0371,-0.0321,-0.026,-0.021,-0.0192,-0.0163,-0.0126,-0.0111,-0.0095,-0.0077,-0.0079,-0.0038,-0.003,-0.0114,-0.0113,-0.0113,-0.0112,0,0,-0.061,-0.0593,-0.0594,-0.0598,-0.0554,-0.0542,-0.0514,-0.0472,-0.0453,-0.0394,-0.0363,-0.0295,-0.0258,-0.0228,-0.0184,-0.014,-0.0095,-0.0115,-0.0111,-0.008,0.0004,0.0053,0.0067,-0.0073,-0.0072,-0.0071,0.0023,0,-0.0647,-0.0671,-0.064,-0.0651,-0.0659,-0.06,-0.0578,-0.0531,-0.0477,-0.0432,-0.0356,-0.0312,-0.0272,-0.025,-0.0198,-0.0117,-0.0076,-0.0123,0.0004,0.0007,0.005,0.0077,0.0116,0.0207,0.0031,0.0032,0.0033,0,-0.0689,-0.07,-0.0726,-0.0711,-0.0707,-0.0698,-0.0653,-0.0625,-0.054,-0.0498,-0.043,-0.0367,-0.0287,-0.0261,-0.0121,-0.0153,-0.0085,-0.0023,-0.0018,0.0049,0.0072,0.0183,0.0229,0.0364,0.0046,0.0045,0.0044,0,-0.0753,-0.0756,-0.0783,-0.0778,-0.0751,-0.0745,-0.0723,-0.0651,-0.0626,-0.0539,-0.0506,-0.04,-0.0345,-0.0239,-0.0103,-0.0114,0.0051,0.0053,0.0161,0.0165,0.0235,0.0243,0.0426,0.0139,0.0139,0.0139,0.0139,0,-0.0808,-0.0826,-0.082,-0.0835,-0.086,-0.0811,-0.0809,-0.0764,-0.0696,-0.0664,-0.055,-0.0493,-0.0338,-0.022,-0.0108,0.0065,0.0051,0.0168,0.02,0.0221,0.0226,0.0376,0.0417,0.0142,0.0142,0.0141,0.014,0,-0.0873,-0.0867,-0.0901,-0.0894,-0.0894,-0.0912,-0.0882,-0.0873,-0.0793,-0.0746,-0.0722,-0.0561,-0.0391,-0.0226,-0.004,0.0062,0.03,0.0271,0.0283,0.0315,0.0537,0.0573,0.0767,0.0815,0.0406,0.0408,0.041,0,-0.0908,-0.0934,-0.096,-0.0987,-0.0989,-0.1001,-0.1007,-0.0939,-0.0917,-0.078,-0.076,-0.0583,-0.0436,-0.0125,0.0092,0.0314,0.0391,0.0459,0.0449,0.0572,0.0635,0.0652,0.0678,0.0522,0.0525,0.0526,0.0528,0,-0.0973,-0.0982,-0.1012,-0.1076,-0.1101,-0.1119,-0.1112,-0.111,-0.1015,-0.0939,-0.0801,-0.0668,-0.0339,-0.0039,0.0256,0.0385,0.056,0.0506,0.0641,0.0754,0.0778,0.0831,0.0427,0.0545,0.0544,0.0542,0.0541,0.0541,-0.1016,-0.106,-0.1104,-0.1159,-0.1195,-0.122,-0.1228,-0.1188,-0.1136,-0.0995,-0.0852,-0.0606,-0.0165,0.0284,0.0431,0.0774,0.0715,0.0868,0.0904,0.0912,0.0961,0.0592,0.074,0.074,0.0739,0.0739,0.0738,0,-0.1068,-0.1114,-0.118,-0.1241,-0.1291,-0.1282,-0.1282,-0.1257,-0.1187,-0.1009,-0.0835,-0.0318,0.0114,0.0502,0.0996,0.1167,0.1169,0.1249,0.1288,0.1294,0.0991,0.1001,0.1204,0.1204,0.1204,0.1204,0.1204,0.1203,-0.1096,-0.1173,-0.1209,-0.1305,-0.1343,-0.1375,-0.137,-0.1303,-0.1174,-0.0875,-0.0563,-0.0311,0.0284,0.1091,0.1527,0.155,0.1652,0.1655,0.1694,0.1501,0.1468,0.1436,0.1458,0.1755,0.1755,0.1981,0.1984,0.1986]}],[{"header":{"parameterUnit":"m.s-1","parameterCategory":2,"la1":30.2991,"la2":30.254,"lo1":-89.0895,"lo2":-89.0444,"dy":0.0017,"dx":0.0017,"nx":28,"ny":28,"refTime":"2024-10-06T03:00:00:Z","depth":"2","parameterNumber":2,"parameterNumberName":"U-component_of_CURRENTS"},"data":[0,0,0,0,0,0,0,0,0,0,0,0,0,0,0,0,0,0,0,0,0,0,0,0,0,0,0,0,0,0,0,0,0,0,0,0,0,0,0,0,0,0,0,0,0,0,0,0,0,0,0,0,0,0,0,0,0,0,-0.2219,-0.2219,0,-0.2221,-0.2221,-0.2221,-0.219,-0.219,-0.2189,-0.2189,-0.2148,-0.2147,-0.2147,0,0,0,0,0,0,0,0,0,0,0,0,0,-0.2176,-0.2177,-0.2219,-0.2219,-0.2219,-0.2221,-0.2221,-0.2221,-0.2191,-0.219,-0.2189,-0.2188,-0.2148,-0.2148,-0.2147,0,0,0,0,0,0,0,0,0,0,0,0,0,-0.2186,-0.2177,-0.2218,-0.2206,-0.2205,-0.2221,-0.2221,-0.2221,-0.2191,-0.219,-0.2189,-0.2188,-0.2148,-0.2148,-0.2147,-0.216,0,0,-0.2144,-0.2144,0,0,0,0,0,0,0,0,-0.2185,-0.2187,-0.2208,-0.2207,-0.2206,-0.2207,-0.2191,-0.2199,-0.2191,-0.2194,-0.2189,-0.2188,-0.2166,-0.2164,-0.2163,-0.2158,-0.2156,-0.2144,-0.2144,-0.2144,-0.2143,0,0,0,0,0,0,0,-0.2184,-0.2187,-0.2217,-0.2208,-0.2207,-0.2197,-0.2197,-0.2192,-0.2182,-0.2193,-0.2192,-0.2196,-0.2165,-0.2164,-0.2162,-0.2156,-0.2144,-0.2144,-0.2143,-0.2143,-0.2171,-0.2172,0,0,0,0,0,0,-0.2191,-0.2186,-0.2217,-0.2217,-0.2196,-0.2198,-0.2199,-0.2205,-0.2183,-0.218,-0.2197,-0.2195,-0.2166,-0.2163,-0.216,-0.2183,-0.2144,-0.2143,-0.2142,-0.217,-0.2171,-0.2172,0,0,0,0,0,0,-0.219,-0.2194,-0.2217,-0.2203,-0.2206,-0.22,-0.2208,-0.2206,-0.2206,-0.2187,-0.2182,-0.22,-0.2165,-0.2161,-0.2162,-0.2181,-0.2142,-0.2142,-0.2168,-0.217,-0.2172,-0.2224,0,0,0,0,0,0,-0.2189,-0.2194,-0.2199,-0.2204,-0.2207,-0.2234,-0.2209,-0.2207,-0.2211,-0.2209,-0.2188,-0.2183,-0.2164,-0.2163,-0.2161,-0.2179,-0.2141,-0.2167,-0.2169,-0.2171,-0.222,-0.2227,-0.2233,0,0,0,0,0,-0.2187,-0.2202,-0.2199,-0.2203,-0.2215,-0.2235,-0.2236,-0.2226,-0.2213,-0.2221,-0.2205,-0.2183,-0.2176,-0.2164,-0.2161,-0.2179,-0.2166,-0.2168,-0.2171,-0.2218,-0.2226,-0.2233,0,0,0,0,0,0,-0.2186,-0.2201,-0.2197,-0.2215,-0.2227,-0.2231,-0.2237,-0.2233,-0.2228,-0.2221,-0.2196,-0.2191,-0.2199,-0.2186,-0.2173,-0.2196,-0.2169,-0.2171,-0.2205,-0.2213,-0.2219,-0.2217,-0.214,0,0,0,0,0,-0.219,-0.2201,-0.2216,-0.2229,-0.2238,-0.2238,-0.2244,-0.2241,-0.224,-0.2236,-0.2223,-0.2212,-0.221,-0.2208,-0.2202,-0.2214,-0.2198,-0.2226,-0.2232,-0.2238,-0.2236,-0.2229,-0.2234,-0.2181,-0.2181,-0.2181,0,0,-0.2192,-0.2201,-0.2207,-0.2229,-0.2234,-0.2257,-0.2238,-0.2254,-0.2269,-0.2233,-0.2243,-0.2231,-0.2219,-0.2231,-0.2234,-0.2221,-0.2247,-0.2241,-0.2246,-0.224,-0.2232,-0.2237,-0.2241,-0.2183,-0.2183,-0.2183,0,0,-0.2206,-0.2212,-0.2228,-0.2245,-0.2263,-0.2269,-0.2278,-0.2288,-0.2288,-0.2301,-0.228,-0.2279,-0.2278,-0.2272,-0.2269,-0.2307,-0.2279,-0.2311,-0.234,-0.2334,-0.2338,-0.2341,-0.2338,-0.234,-0.2315,-0.2315,-0.2315,0,-0.2206,-0.2229,-0.2236,-0.2261,-0.2276,-0.2279,-0.2304,-0.2313,-0.2321,-0.2324,-0.231,-0.231,-0.2296,-0.2311,-0.2324,-0.232,-0.2312,-0.2311,-0.2341,-0.2343,-0.2346,-0.2342,-0.2343,-0.2318,-0.2318,-0.2317,-0.2317,0,-0.2233,-0.2255,-0.2269,-0.2299,-0.2318,-0.234,-0.2361,-0.2374,-0.2373,-0.2376,-0.2387,-0.2371,-0.2367,-0.2371,-0.2357,-0.2375,-0.2364,-0.2348,-0.2319,-0.2354,-0.2348,-0.2349,-0.2322,-0.2321,-0.232,-0.2319,0,0,-0.2216,-0.2276,-0.2277,-0.2298,-0.2339,-0.2355,-0.2391,-0.2418,-0.2433,-0.2437,-0.2452,-0.2451,-0.2435,-0.243,-0.2416,-0.2413,-0.2425,-0.2391,-0.239,-0.2383,-0.2417,-0.2387,-0.2385,-0.2414,-0.2414,-0.2415,-0.241,0,-0.223,-0.2279,-0.2308,-0.2351,-0.2377,-0.2403,-0.2436,-0.2461,-0.2472,-0.2488,-0.2479,-0.2484,-0.2461,-0.2458,-0.2454,-0.2431,-0.2429,-0.2428,-0.2388,-0.2387,-0.2351,-0.2385,-0.219,-0.2167,-0.2411,-0.2411,-0.2411,0,-0.2238,-0.227,-0.2317,-0.2375,-0.2388,-0.2417,-0.2459,-0.2489,-0.2521,-0.2531,-0.2537,-0.2528,-0.253,-0.25,-0.248,-0.2481,-0.2454,-0.2434,-0.2433,-0.2384,-0.2358,-0.217,-0.216,-0.2412,-0.2412,-0.2412,-0.2412,0,-0.2202,-0.227,-0.2304,-0.2325,-0.2395,-0.2418,-0.245,-0.2493,-0.2517,-0.255,-0.2565,-0.2567,-0.256,-0.2536,-0.2498,-0.2489,-0.2471,-0.245,-0.24,-0.2398,-0.2212,-0.2193,-0.2433,-0.2433,-0.2433,-0.2433,-0.2433,0,-0.2196,-0.2218,-0.229,-0.2306,-0.2341,-0.2399,-0.2435,-0.247,-0.2523,-0.2546,-0.2574,-0.2586,-0.2566,-0.2554,-0.2517,-0.2466,-0.2485,-0.2409,-0.2395,-0.2227,-0.2211,-0.2402,-0.2399,-0.2433,-0.2433,-0.2433,-0.2433,0,-0.2141,-0.2196,-0.223,-0.2303,-0.2324,-0.2341,-0.2417,-0.2443,-0.2507,-0.2538,-0.255,-0.2595,-0.2581,-0.2563,-0.2523,-0.2482,-0.2442,-0.2417,-0.2229,-0.2194,-0.2368,-0.2367,-0.2359,-0.2358,-0.2357,-0.2357,-0.2356,0,-0.2116,-0.213,-0.22,-0.2213,-0.2243,-0.2287,-0.2318,-0.2408,-0.2439,-0.2533,-0.2538,-0.2564,-0.2554,-0.2513,-0.2442,-0.2381,-0.242,-0.2171,-0.2118,-0.2373,-0.2361,-0.2362,-0.2362,-0.1892,-0.1888,-0.1884,-0.1881,0,-0.2047,-0.2072,-0.2095,-0.2129,-0.2161,-0.2201,-0.2254,-0.2282,-0.2384,-0.2424,-0.2468,-0.2479,-0.2463,-0.2318,-0.2262,-0.2192,-0.2168,-0.2099,-0.2393,-0.1957,-0.1936,-0.1923,-0.1938,-0.1849,-0.1852,-0.1855,-0.1856,-0.1858,-0.1972,-0.1967,-0.1998,-0.2017,-0.2055,-0.2079,-0.2068,-0.2146,-0.2182,-0.2204,-0.2309,-0.226,-0.2235,-0.2058,-0.1962,-0.1877,-0.2019,-0.1896,-0.1905,-0.1918,-0.1881,-0.1861,-0.1753,-0.1755,-0.1757,-0.1759,-0.1761,0,-0.186,-0.1868,-0.1882,-0.1897,-0.1882,-0.195,-0.199,-0.1949,-0.194,-0.2008,-0.2018,-0.1812,-0.1744,-0.1728,-0.1567,-0.1545,-0.1499,-0.1457,-0.1385,-0.1418,-0.1447,-0.1384,-0.1125,-0.1123,-0.1121,-0.1119,0,0,-0.18,-0.1763,-0.1771,-0.1704,-0.1715,-0.1647,-0.1637,-0.1604,-0.1611,-0.1551,-0.1533,-0.1663,-0.1698,-0.1417,-0.1346,-0.1218,-0.13,-0.1151,-0.166,-0.1608,-0.1635,-0.1698,-0.1639,0,0,0,0,0]},{"header":{"parameterUnit":"m.s-1","parameterCategory":2,"la1":30.2991,"la2":30.254,"lo1":-89.0895,"lo2":-89.0444,"dy":0.0017,"dx":0.0017,"nx":28,"ny":28,"refTime":"2024-10-06T03:00:00:Z","depth":"2","parameterNumber":3,"parameterNumberName":"V-component_of_CURRENTS"},"data":[0,0,0,0,0,0,0,0,0,0,0,0,0,0,0,0,0,0,0,0,0,0,0,0,0,0,0,0,0,0,0,0,0,0,0,0,0,0,0,0,0,0,0,0,0,0,0,0,0,0,0,0,0,0,0,0,0,0,-0.0294,-0.0294,0,-0.0218,-0.0217,-0.0216,-0.0172,-0.0172,-0.0172,-0.0171,-0.0074,-0.0072,-0.007,0,0,0,0,0,0,0,0,0,0,0,0,0,-0.0356,-0.0356,-0.0295,-0.0294,-0.0293,-0.0218,-0.0217,-0.0216,-0.0172,-0.0172,-0.0172,-0.0171,-0.0075,-0.0072,-0.0069,0,0,0,0,0,0,0,0,0,0,0,0,0,-0.031,-0.0355,-0.0295,-0.0262,-0.0258,-0.0218,-0.0217,-0.0215,-0.0172,-0.0172,-0.0171,-0.0171,-0.0076,-0.0073,-0.0069,-0.0051,0,0,-0.0058,-0.0056,0,0,0,0,0,0,0,0,-0.0312,-0.0307,-0.0267,-0.0264,-0.026,-0.0204,-0.0203,-0.016,-0.0172,-0.0205,-0.0171,-0.0171,-0.0116,-0.0109,-0.0095,-0.0047,-0.0043,-0.0057,-0.0055,-0.0054,-0.0053,0,0,0,0,0,0,0,-0.0316,-0.031,-0.0264,-0.0267,-0.0262,-0.0235,-0.0228,-0.0194,-0.0162,-0.0202,-0.0198,-0.019,-0.0114,-0.0099,-0.0093,-0.0041,-0.0058,-0.0054,-0.0052,-0.0051,0.0028,0.0028,0,0,0,0,0,0,-0.0328,-0.0313,-0.0267,-0.0262,-0.0286,-0.0234,-0.0227,-0.0222,-0.0163,-0.0154,-0.019,-0.0188,-0.0105,-0.0097,-0.0089,-0.0064,-0.0054,-0.005,-0.0048,0.0028,0.0028,0.0028,0,0,0,0,0,0,-0.033,-0.0325,-0.027,-0.0286,-0.0277,-0.0234,-0.0229,-0.0221,-0.0207,-0.0154,-0.0145,-0.0185,-0.0105,-0.0094,-0.0058,-0.006,-0.0049,-0.0045,0.0028,0.0028,0.0028,-0.0013,0,0,0,0,0,0,-0.0332,-0.0326,-0.0329,-0.0287,-0.0276,-0.0252,-0.0228,-0.0219,-0.0202,-0.0199,-0.0146,-0.0137,-0.0104,-0.0064,-0.0055,-0.0054,-0.0042,0.0029,0.0028,0.0028,-0.0012,-0.0015,-0.0017,0,0,0,0,0,-0.0334,-0.034,-0.033,-0.0324,-0.0282,-0.0252,-0.0244,-0.0212,-0.0202,-0.0199,-0.0161,-0.0139,-0.0059,-0.0061,-0.005,-0.0049,0.0029,0.0028,0.0028,-0.001,-0.0014,-0.0017,0,0,0,0,0,0,-0.0368,-0.0335,-0.0323,-0.0318,-0.029,-0.0245,-0.024,-0.0217,-0.0185,-0.0183,-0.0135,-0.0122,-0.0093,-0.0066,-0.007,-0.0027,-0.0014,-0.0012,-0.0047,-0.005,-0.0052,-0.0063,-0.0039,0,0,0,0,0,-0.0378,-0.0376,-0.0337,-0.0335,-0.0323,-0.0283,-0.0268,-0.0247,-0.0211,-0.0197,-0.0159,-0.012,-0.0085,-0.0064,-0.0031,-0.0005,0.0026,0.0001,-0.0002,-0.0004,-0.0006,0.0043,0.0045,0.0027,0.0027,0.0027,0,0,-0.0391,-0.0373,-0.0372,-0.0342,-0.0319,-0.0307,-0.0274,-0.0257,-0.0243,-0.0191,-0.0165,-0.0129,-0.0081,-0.0052,-0.0037,-0.0029,0.0016,-0.0004,-0.0007,-0.0007,0.0043,0.0045,0.0047,0.0027,0.0027,0.0027,0,0,-0.0419,-0.0401,-0.0409,-0.0388,-0.0358,-0.0329,-0.0328,-0.0285,-0.0263,-0.0231,-0.0193,-0.0156,-0.0105,-0.0067,-0.0042,-0.004,-0.0002,-0.0035,-0.0053,-0.0006,-0.0004,-0.0002,0.0035,0.0041,-0.0035,-0.0035,-0.0035,0,-0.0438,-0.044,-0.0407,-0.0406,-0.0393,-0.0344,-0.0346,-0.0314,-0.0264,-0.0244,-0.0231,-0.0148,-0.011,-0.0064,-0.0065,-0.0046,-0.0018,-0.0044,-0.0009,-0.0007,-0.0004,0.0034,0.0041,-0.0037,-0.0036,-0.0036,-0.0036,0,-0.0468,-0.0469,-0.0471,-0.0455,-0.0435,-0.0429,-0.038,-0.0357,-0.0325,-0.0287,-0.0239,-0.0181,-0.0132,-0.0115,-0.0088,-0.005,-0.0037,-0.0021,-0.0002,-0.0004,0.0035,0.0043,-0.0039,-0.0039,-0.0038,-0.0038,0,0,-0.0515,-0.0499,-0.05,-0.0503,-0.0461,-0.045,-0.0423,-0.0382,-0.0364,-0.0308,-0.0277,-0.0212,-0.0178,-0.0148,-0.0106,-0.0063,-0.002,-0.0039,-0.0036,-0.0005,0.0078,0.0122,0.0135,0.0003,0.0004,0.0005,0.0096,0,-0.0551,-0.0574,-0.0544,-0.0555,-0.0561,-0.0505,-0.0484,-0.0438,-0.0387,-0.0343,-0.027,-0.0228,-0.0191,-0.017,-0.0119,-0.0041,-0.0,-0.0046,0.0078,0.0082,0.0119,0.0145,0.0123,0.0205,0.0104,0.0105,0.0106,0,-0.0592,-0.0602,-0.0626,-0.0611,-0.0607,-0.0599,-0.0555,-0.0528,-0.0446,-0.0405,-0.034,-0.028,-0.0203,-0.0178,-0.0043,-0.0074,-0.0008,0.0052,0.0057,0.0119,0.0141,0.0193,0.0224,0.012,0.0119,0.0118,0.0117,0,-0.0654,-0.0656,-0.0682,-0.0677,-0.0649,-0.0645,-0.0623,-0.0554,-0.0529,-0.0445,-0.0413,-0.031,-0.0258,-0.0155,-0.0025,-0.0035,0.0125,0.0128,0.0229,0.0233,0.025,0.0253,0.0214,0.0213,0.0213,0.0213,0.0213,0,-0.0707,-0.0725,-0.0718,-0.0732,-0.0756,-0.0709,-0.0708,-0.0664,-0.0598,-0.0568,-0.0457,-0.0402,-0.0251,-0.0136,-0.0029,0.0137,0.0126,0.0236,0.0266,0.0234,0.0235,0.0188,0.0184,0.0216,0.0216,0.0215,0.0214,0,-0.077,-0.0765,-0.0797,-0.079,-0.079,-0.0808,-0.0779,-0.0771,-0.0694,-0.0649,-0.0626,-0.0469,-0.0305,-0.0144,0.0036,0.0135,0.0282,0.0335,0.0285,0.0309,0.0354,0.0347,0.0458,0.046,0.0463,0.0464,0.0466,0,-0.0805,-0.083,-0.0855,-0.0882,-0.0884,-0.0897,-0.0902,-0.0836,-0.0815,-0.0684,-0.0663,-0.0493,-0.0352,-0.0052,0.015,0.0362,0.0344,0.0449,0.0432,0.0364,0.0383,0.0372,0.0362,0.0432,0.0433,0.0434,0.0435,0,-0.0869,-0.0878,-0.0907,-0.0969,-0.0995,-0.1011,-0.1005,-0.1003,-0.0911,-0.0838,-0.0705,-0.0579,-0.0269,-0.0012,0.0268,0.0383,0.0418,0.0475,0.0434,0.0375,0.0348,0.0363,0.0353,0.0442,0.0442,0.0441,0.0441,0.044,-0.0912,-0.0955,-0.0998,-0.1052,-0.1087,-0.111,-0.1118,-0.1077,-0.1026,-0.0888,-0.0756,-0.0527,-0.0271,0.015,0.0342,0.0517,0.0515,0.0549,0.0542,0.0536,0.0518,0.0497,0.0615,0.0615,0.0615,0.0615,0.0616,0,-0.0962,-0.1009,-0.1073,-0.1132,-0.1179,-0.1173,-0.1172,-0.1138,-0.1068,-0.0902,-0.0736,-0.0432,-0.0124,0.0132,0.0426,0.06,0.0567,0.0612,0.0535,0.0528,0.0522,0.0499,0.0593,0.0593,0.0594,0.0594,0,0,-0.099,-0.1064,-0.1099,-0.1191,-0.1231,-0.1259,-0.1255,-0.117,-0.1045,-0.0862,-0.0677,-0.0429,-0.0104,0.0091,0.0314,0.0462,0.0439,0.0467,0.0471,0.0348,0.0339,0.0479,0.0437,0,0,0,0,0]}],[{"header":{"parameterUnit":"m.s-1","parameterCategory":2,"la1":30.2991,"la2":30.254,"lo1":-89.0895,"lo2":-89.0444,"dy":0.0017,"dx":0.0017,"nx":28,"ny":28,"refTime":"2024-10-06T03:00:00:Z","depth":"4","parameterNumber":2,"parameterNumberName":"U-component_of_CURRENTS"},"data":[0,0,0,0,0,0,0,0,0,0,0,0,0,0,0,0,0,0,0,0,0,0,0,0,0,0,0,0,0,0,0,0,0,0,0,0,0,0,0,0,0,0,0,0,0,0,0,0,0,0,0,0,0,0,0,0,0,0,-0.1538,-0.1539,0,-0.1582,-0.1582,-0.1582,-0.161,-0.1611,-0.1611,-0.1611,-0.1643,-0.1643,-0.1644,0,0,0,0,0,0,0,0,0,0,0,0,0,-0.147,-0.1471,-0.1538,-0.1539,-0.1539,-0.1582,-0.1582,-0.1583,-0.161,-0.1611,-0.1611,-0.1611,-0.1642,-0.1643,-0.1644,0,0,0,0,0,0,0,0,0,0,0,0,0,-0.1504,-0.1471,-0.1538,-0.1559,-0.1562,-0.1582,-0.1582,-0.1583,-0.161,-0.1611,-0.1611,-0.1611,-0.1642,-0.1643,-0.1644,-0.1639,0,0,-0.1646,-0.1647,0,0,0,0,0,0,0,0,-0.1502,-0.1506,-0.1556,-0.1558,-0.1561,-0.1592,-0.157,-0.1602,-0.161,-0.159,-0.1611,-0.1612,-0.1625,-0.1628,-0.1633,-0.1641,-0.1642,-0.1646,-0.1647,-0.1647,-0.1647,0,0,0,0,0,0,0,-0.1499,-0.1504,-0.1554,-0.1556,-0.156,-0.1564,-0.1569,-0.1576,-0.1603,-0.1592,-0.1594,-0.1602,-0.1627,-0.1632,-0.1634,-0.1643,-0.1646,-0.1647,-0.1648,-0.1648,-0.1722,-0.1723,0,0,0,0,0,0,-0.1497,-0.1502,-0.1552,-0.1555,-0.1534,-0.1565,-0.1571,-0.158,-0.1603,-0.1608,-0.1601,-0.1603,-0.163,-0.1633,-0.1635,-0.17,-0.1647,-0.1648,-0.1648,-0.172,-0.1722,-0.1724,0,0,0,0,0,0,-0.1496,-0.1502,-0.155,-0.1531,-0.1537,-0.1566,-0.1576,-0.1581,-0.1613,-0.1611,-0.1615,-0.1632,-0.1631,-0.1634,-0.1667,-0.1698,-0.1648,-0.1649,-0.1719,-0.1721,-0.1723,-0.1785,0,0,0,0,0,0,-0.1494,-0.1501,-0.1519,-0.1531,-0.1539,-0.1582,-0.1576,-0.1582,-0.1616,-0.1619,-0.1638,-0.164,-0.1631,-0.1666,-0.1667,-0.1699,-0.165,-0.1717,-0.172,-0.1722,-0.1781,-0.1789,-0.1796,0,0,0,0,0,-0.1491,-0.1511,-0.1519,-0.1526,-0.1559,-0.1583,-0.1588,-0.1608,-0.1617,-0.1638,-0.1652,-0.164,-0.1684,-0.1667,-0.1669,-0.1701,-0.1715,-0.1719,-0.1722,-0.1778,-0.1788,-0.1796,0,0,0,0,0,0,-0.1493,-0.1516,-0.1526,-0.1553,-0.1576,-0.1589,-0.1613,-0.1625,-0.1652,-0.1662,-0.1658,-0.1661,-0.1701,-0.1694,-0.1675,-0.1732,-0.1699,-0.1703,-0.1741,-0.175,-0.1757,-0.175,-0.165,0,0,0,0,0,-0.1501,-0.1523,-0.1544,-0.1568,-0.1583,-0.1603,-0.1621,-0.1636,-0.1655,-0.1669,-0.1683,-0.1697,-0.1711,-0.1726,-0.1735,-0.1766,-0.1746,-0.1789,-0.1796,-0.1803,-0.1799,-0.1796,-0.1802,-0.1735,-0.1735,-0.1735,0,0,-0.1509,-0.1525,-0.1539,-0.1571,-0.1591,-0.162,-0.1616,-0.1652,-0.1682,-0.1667,-0.1719,-0.1724,-0.1725,-0.1761,-0.1778,-0.1763,-0.1815,-0.1807,-0.1812,-0.1805,-0.18,-0.1806,-0.1811,-0.1737,-0.1737,-0.1736,0,0,-0.1527,-0.1552,-0.1575,-0.1599,-0.1636,-0.1649,-0.1667,-0.1698,-0.1722,-0.1764,-0.1762,-0.1786,-0.1816,-0.1819,-0.1823,-0.1877,-0.1852,-0.189,-0.1925,-0.1922,-0.1927,-0.1932,-0.1924,-0.1927,-0.1896,-0.1896,-0.1896,0,-0.1539,-0.1568,-0.1587,-0.1616,-0.1642,-0.1667,-0.17,-0.1727,-0.1768,-0.1787,-0.1792,-0.1835,-0.1839,-0.1869,-0.1891,-0.1893,-0.1886,-0.1891,-0.1931,-0.1934,-0.1937,-0.1929,-0.1931,-0.19,-0.1899,-0.1899,-0.1898,0,-0.1564,-0.1602,-0.1621,-0.1665,-0.1695,-0.173,-0.1766,-0.1804,-0.1835,-0.1854,-0.1902,-0.1907,-0.1928,-0.1941,-0.1934,-0.1967,-0.1954,-0.1938,-0.1905,-0.1948,-0.1936,-0.1938,-0.1904,-0.1903,-0.1902,-0.1901,0,0,-0.1547,-0.1624,-0.1633,-0.1665,-0.1726,-0.1749,-0.1808,-0.1855,-0.189,-0.1931,-0.1969,-0.1999,-0.2001,-0.2005,-0.2004,-0.2008,-0.203,-0.1991,-0.1989,-0.1978,-0.2026,-0.1905,-0.1895,-0.2024,-0.2025,-0.2025,-0.2012,0,-0.1563,-0.1623,-0.1661,-0.1726,-0.1758,-0.1807,-0.1857,-0.1905,-0.1943,-0.1987,-0.2002,-0.2035,-0.2027,-0.2042,-0.2047,-0.2033,-0.2035,-0.2034,-0.1991,-0.1989,-0.1871,-0.1893,-0.2027,-0.2013,-0.2013,-0.2013,-0.2013,0,-0.1565,-0.1608,-0.1675,-0.1756,-0.1776,-0.1824,-0.1899,-0.1945,-0.2006,-0.2037,-0.2071,-0.208,-0.2103,-0.2085,-0.208,-0.2083,-0.2061,-0.2045,-0.2044,-0.1905,-0.187,-0.1959,-0.2015,-0.2015,-0.2015,-0.2015,-0.2015,0,-0.1522,-0.1613,-0.1668,-0.1697,-0.1793,-0.184,-0.1891,-0.1962,-0.2,-0.2067,-0.2095,-0.2122,-0.2134,-0.212,-0.2094,-0.2093,-0.2074,-0.2062,-0.1932,-0.1924,-0.2009,-0.2005,-0.205,-0.205,-0.205,-0.205,-0.205,0,-0.1503,-0.1548,-0.166,-0.1688,-0.1753,-0.1829,-0.1897,-0.1951,-0.2026,-0.2056,-0.2114,-0.2125,-0.2144,-0.2135,-0.2107,-0.2017,-0.2083,-0.1932,-0.1908,-0.2038,-0.2037,-0.201,-0.2006,-0.2049,-0.2049,-0.205,-0.205,0,-0.1436,-0.1515,-0.1581,-0.1696,-0.1735,-0.1779,-0.1892,-0.1929,-0.2017,-0.2056,-0.2078,-0.2133,-0.2113,-0.2114,-0.2085,-0.2013,-0.1954,-0.1907,-0.2051,-0.2037,-0.1805,-0.1804,-0.1753,-0.1748,-0.1744,-0.1741,-0.1739,0,-0.1404,-0.1435,-0.1564,-0.1601,-0.1659,-0.1742,-0.1791,-0.1904,-0.1934,-0.2034,-0.203,-0.2061,-0.2074,-0.1934,-0.1956,-0.1889,-0.1863,-0.1827,-0.1807,-0.179,-0.1773,-0.1778,-0.1782,-0.1733,-0.1732,-0.1731,-0.173,0,-0.133,-0.1392,-0.1442,-0.1519,-0.1586,-0.1647,-0.1725,-0.1735,-0.1846,-0.1951,-0.1921,-0.19,-0.1875,-0.1838,-0.1798,-0.1753,-0.1846,-0.1787,-0.1794,-0.1775,-0.1765,-0.1753,-0.1762,-0.1716,-0.1718,-0.172,-0.172,0,-0.1269,-0.1283,-0.1357,-0.1408,-0.1486,-0.1509,-0.1577,-0.1607,-0.1654,-0.1768,-0.1753,-0.179,-0.1853,-0.1767,-0.1734,-0.1677,-0.1644,-0.1584,-0.1601,-0.1616,-0.1574,-0.1542,-0.1396,0,0,0,0,0,-0.1194,-0.1194,-0.1235,-0.1283,-0.1355,-0.1396,-0.1504,-0.1573,-0.1685,-0.1618,-0.168,-0.165,-0.1599,-0.1624,-0.1529,-0.1664,-0.1649,-0.1548,-0.1589,-0.1644,-0.1659,-0.1622,0,0,0,0,0,0,-0.1144,-0.1176,-0.1187,-0.1159,-0.1164,-0.1228,-0.1288,-0.1377,-0.135,-0.1469,-0.1446,-0.154,-0.151,-0.1611,-0.1488,-0.1494,-0.1484,-0.1584,-0.158,-0.1635,-0.1649,-0.1661,-0.1628,0,0,0,0,0]},{"header":{"parameterUnit":"m.s-1","parameterCategory":2,"la1":30.2991,"la2":30.254,"lo1":-89.0895,"lo2":-89.0444,"dy":0.0017,"dx":0.0017,"nx":28,"ny":28,"refTime":"2024-10-06T03:00:00:Z","depth":"4","parameterNumber":3,"parameterNumberName":"V-component_of_CURRENTS"},"data":[0,0,0,0,0,0,0,0,0,0,0,0,0,0,0,0,0,0,0,0,0,0,0,0,0,0,0,0,0,0,0,0,0,0,0,0,0,0,0,0,0,0,0,0,0,0,0,0,0,0,0,0,0,0,0,0,0,0,-0.0165,-0.0165,0,-0.0115,-0.0115,-0.0114,-0.0084,-0.0084,-0.0084,-0.0083,-0.0008,-0.0006,-0.0004,0,0,0,0,0,0,0,0,0,0,0,0,0,-0.0196,-0.0196,-0.0165,-0.0165,-0.0164,-0.0115,-0.0115,-0.0114,-0.0084,-0.0084,-0.0084,-0.0083,-0.0008,-0.0006,-0.0004,0,0,0,0,0,0,0,0,0,0,0,0,0,-0.0168,-0.0196,-0.0165,-0.0143,-0.0141,-0.0115,-0.0115,-0.0114,-0.0084,-0.0084,-0.0084,-0.0083,-0.0009,-0.0006,-0.0004,0.001,0,0,0.0005,0.0006,0,0,0,0,0,0,0,0,-0.017,-0.0167,-0.0147,-0.0145,-0.0142,-0.0106,-0.0098,-0.0071,-0.0084,-0.0105,-0.0083,-0.0083,-0.0038,-0.0033,-0.0024,0.0014,0.0017,0.0005,0.0007,0.0008,0.0009,0,0,0,0,0,0,0,-0.0172,-0.0169,-0.0145,-0.0147,-0.0143,-0.0123,-0.0119,-0.0092,-0.0073,-0.0103,-0.0101,-0.0096,-0.0037,-0.0027,-0.0022,0.0018,0.0005,0.0008,0.001,0.0011,0.007,0.007,0,0,0,0,0,0,-0.0181,-0.0171,-0.0147,-0.0144,-0.0156,-0.0123,-0.0118,-0.0117,-0.0074,-0.0067,-0.0096,-0.0095,-0.0032,-0.0025,-0.0019,-0.0001,0.0008,0.0011,0.0013,0.007,0.007,0.007,0,0,0,0,0,0,-0.0182,-0.0179,-0.0149,-0.0156,-0.0151,-0.0123,-0.0122,-0.0117,-0.0109,-0.0068,-0.0061,-0.0094,-0.0032,-0.0023,0.0004,0.0002,0.0012,0.0015,0.007,0.007,0.007,0.0036,0,0,0,0,0,0,-0.0183,-0.018,-0.0185,-0.0157,-0.0151,-0.0139,-0.0122,-0.0116,-0.0106,-0.0104,-0.0064,-0.0057,-0.0031,-0.0001,0.0006,0.0006,0.0017,0.007,0.007,0.007,0.0038,0.0035,0.0033,0,0,0,0,0,-0.0184,-0.0192,-0.0186,-0.0183,-0.0158,-0.0139,-0.0135,-0.0113,-0.0106,-0.0105,-0.0077,-0.0058,0.0002,0.0001,0.001,0.0011,0.0071,0.007,0.007,0.0039,0.0035,0.0033,0,0,0,0,0,0,-0.0207,-0.0189,-0.0182,-0.0183,-0.0166,-0.0135,-0.0133,-0.0118,-0.0095,-0.0094,-0.0056,-0.0047,-0.0025,-0.0003,-0.0006,0.0026,0.0038,0.0039,0.0011,0.0008,0.0006,-0.0002,0.002,0,0,0,0,0,-0.0216,-0.0219,-0.0194,-0.0197,-0.019,-0.0164,-0.0155,-0.014,-0.0115,-0.0105,-0.0076,-0.0047,-0.0019,-0.0003,0.0022,0.0042,0.007,0.0047,0.0044,0.0042,0.0041,0.0086,0.0088,0.0069,0.0069,0.0069,0,0,-0.0226,-0.0216,-0.0218,-0.0202,-0.0188,-0.0182,-0.0158,-0.0149,-0.0141,-0.01,-0.0083,-0.0055,-0.0017,0.0005,0.0016,0.0024,0.0061,0.0042,0.004,0.004,0.0086,0.0088,0.009,0.0068,0.0069,0.0069,0,0,-0.0248,-0.024,-0.025,-0.0237,-0.022,-0.0201,-0.0201,-0.0173,-0.0158,-0.0137,-0.0106,-0.0077,-0.0039,-0.0008,0.0012,0.0011,0.0045,0.0014,-0.0,0.0044,0.0046,0.0048,0.008,0.0085,0.0015,0.0015,0.0015,0,-0.0262,-0.0269,-0.0249,-0.0252,-0.0245,-0.0213,-0.0217,-0.0195,-0.0161,-0.0146,-0.0138,-0.0074,-0.0044,-0.0006,-0.0008,0.0007,0.0032,0.0008,0.0041,0.0044,0.0047,0.0079,0.0085,0.0013,0.0013,0.0014,0.0014,0,-0.0286,-0.0292,-0.0297,-0.0291,-0.0279,-0.0278,-0.0246,-0.0232,-0.0211,-0.0183,-0.0146,-0.0101,-0.0063,-0.0049,-0.0028,0.0005,0.0016,0.0031,0.0048,0.0047,0.008,0.0088,0.0011,0.0012,0.0012,0.0012,0,0,-0.0317,-0.0316,-0.0319,-0.0325,-0.0301,-0.0296,-0.0279,-0.0252,-0.024,-0.02,-0.0176,-0.0126,-0.01,-0.0076,-0.0042,-0.0003,0.0037,0.0017,0.002,0.0047,0.0126,0.0122,0.013,0.0059,0.006,0.0061,0.0139,0,-0.0344,-0.0368,-0.0352,-0.0367,-0.0375,-0.0339,-0.0327,-0.0296,-0.0259,-0.0227,-0.0169,-0.0138,-0.011,-0.0094,-0.0049,0.0018,0.0055,0.0014,0.0124,0.0128,0.0124,0.0138,0.0065,0.0145,0.0147,0.0148,0.0149,0,-0.0372,-0.0385,-0.0412,-0.041,-0.0409,-0.0411,-0.0384,-0.0368,-0.0307,-0.0276,-0.0226,-0.0179,-0.0115,-0.0095,0.0021,-0.0007,0.0051,0.0103,0.0108,0.0121,0.0137,0.0149,0.0162,0.0161,0.016,0.0159,0.0159,0,-0.041,-0.0424,-0.0451,-0.0451,-0.0442,-0.0446,-0.0437,-0.0389,-0.0374,-0.0309,-0.0285,-0.02,-0.0159,-0.0069,0.0038,0.003,0.0167,0.0174,0.0225,0.0225,0.0221,0.0218,0.0252,0.0251,0.0251,0.0251,0.0251,0,-0.044,-0.0462,-0.0478,-0.0492,-0.0522,-0.0495,-0.0504,-0.0475,-0.043,-0.0409,-0.0322,-0.028,-0.015,-0.0055,0.0036,0.0156,0.017,0.0226,0.0249,0.0203,0.0197,0.0226,0.0222,0.0254,0.0253,0.0253,0.0252,0,-0.0473,-0.0483,-0.0519,-0.0534,-0.0544,-0.0566,-0.0565,-0.0563,-0.051,-0.0477,-0.046,-0.0335,-0.0205,-0.0072,0.0084,0.0149,0.0266,0.0302,0.0239,0.0257,0.0292,0.0285,0.0364,0.0365,0.0365,0.0366,0.0366,0,-0.049,-0.0514,-0.0563,-0.0595,-0.0609,-0.0636,-0.0652,-0.0615,-0.06,-0.0508,-0.049,-0.036,-0.0266,-0.0038,0.0094,0.0274,0.0293,0.0343,0.0319,0.0291,0.0306,0.0298,0.0291,0.0367,0.0367,0.0367,0.0367,0,-0.0519,-0.0544,-0.0576,-0.0648,-0.0687,-0.0715,-0.0727,-0.0723,-0.0663,-0.0621,-0.0499,-0.0367,-0.0214,-0.0038,0.0105,0.0231,0.0308,0.0349,0.0348,0.0326,0.0295,0.0308,0.03,0.0369,0.0369,0.0369,0.0369,0,-0.0541,-0.0578,-0.0631,-0.0687,-0.0743,-0.0771,-0.0773,-0.0736,-0.0707,-0.0594,-0.0558,-0.0373,-0.0264,-0.006,0.0072,0.0199,0.0221,0.0244,0.0249,0.0249,0.019,0.0133,0.0181,0,0,0,0,0,-0.0555,-0.0598,-0.0662,-0.0721,-0.0777,-0.0801,-0.0809,-0.0793,-0.074,-0.0661,-0.0602,-0.0452,-0.0223,-0.0112,0.0013,0.0059,0.0223,0.0206,0.0246,0.0378,0.0376,0.0327,0,0,0,0,0,0,-0.0565,-0.063,-0.0663,-0.0734,-0.0777,-0.0824,-0.0829,-0.0795,-0.0732,-0.0661,-0.0531,-0.0441,-0.0215,-0.0295,0.0011,0.0051,0.0088,0.0324,0.0326,0.038,0.0378,0.0376,0.0324,0,0,0,0,0]}]]